Regional Weather Roundup
Issued by NWS Little Rock, AR

Home | Current Version | Previous Version | Text Only | Print | Product List | Glossary On
Versions: 1 2 3 4 5 6 7 8 9 10 11 12 13 14 15 16 17 18 19 20 21 22 23 24 25 26 27 28 29 30 31 32 33 34 35 36 37 38 39 40 41 42 43 44 45 46 47 48 49 50
000
ASUS44 KLZK 212005
RWRLZK

WEATHER ROUNDUP FOR ARKANSAS
NATIONAL WEATHER SERVICE LITTLE ROCK AR
300 PM CDT TUE OCT 21 2014

NOTE: "FAIR" INDICATES FEW OR NO CLOUDS BELOW 12,000 FEET WITH NO
SIGNIFICANT WEATHER AND/OR OBSTRUCTIONS TO VISIBILITY.

ARZ001-003-010-029-212100-
NORTHWEST ARKANSAS

CITY           SKY/WX    TMP DP  RH WIND       PRES   REMARKS
FAYETTEVILLE   SUNNY     75  52  44 NW6       30.08F
FORT SMITH     SUNNY     79  59  50 CALM      30.05F
HARRISON       SUNNY     75  51  43 NW7       30.09F
BENTONVILLE    SUNNY     73  50  43 CALM      30.09F
ROGERS         SUNNY     73  52  47 VRB5      30.09F
SILOAM SPGS    SUNNY     75  52  43 E3        30.09F
HIGHFILL       SUNNY     75  52  44 CALM      30.08F HAZE
SPRINGDALE     SUNNY     75  52  43 CALM      30.10F
$$

ARZ004-005-016-212100-
NORTH CENTRAL ARKANSAS

CITY           SKY/WX    TMP DP  RH WIND       PRES   REMARKS
BATESVILLE     SUNNY     79  48  34 NW6       30.07S
FLIPPIN        SUNNY     75  45  33 NE5       30.09S
MTN HOME       SUNNY     73  47  39 CALM      30.08F
$$

ARZ040-041-212100-
WEST CENTRAL ARKANSAS

CITY           SKY/WX    TMP DP  RH WIND       PRES   REMARKS
MENA           PTSUNNY   79  61  53 CALM      30.06F
MOUNT IDA      SUNNY     79  58  48 CALM      30.05F
$$

ARZ009-017-025-026-028-212100-
NORTHEAST ARKANSAS

CITY           SKY/WX    TMP DP  RH WIND       PRES   REMARKS
CORNING        LGT RAIN  73  46  38 NW6       30.07S
JONESBORO      SUNNY     75  45  34 N5        30.06F
NEWPORT        SUNNY     76  45  33 NE5       30.08S
WALNUT RIDGE   SUNNY     73  45  35 NE3       30.07S
BLYTHEVILLE    SUNNY     78  46  32 NW5       30.06F
NW BLYTHEVILLE SUNNY     75  48  38 N6        30.06F
$$

ARZ022-023-033-042-044-212100-
CENTRAL ARKANSAS

CITY           SKY/WX    TMP DP  RH WIND       PRES   REMARKS
LITTLE ROCK    MOSUNNY   80  51  36 NE3       30.05F
N LITTLE ROCK  MOSUNNY   77  55  46 NE7       30.05F
JACKSONVILLE   SUNNY     78  53  40 VRB2      30.05F
SEARCY         SUNNY     78  51  38 N5        30.06F
HOT SPRINGS    PTSUNNY   78  57  48 S6        30.06F
RUSSELLVILLE   SUNNY     77  53  43 VRB3      30.06F
$$

ARZ036-212100-
EAST ARKANSAS

CITY           SKY/WX    TMP DP  RH WIND       PRES   REMARKS
WEST MEMPHIS   SUNNY     76  47  35 N10       30.05F
$$

ARZ050-053-066-070-073-212100-
SOUTHWEST ARKANSAS

CITY           SKY/WX    TMP DP  RH WIND       PRES   REMARKS
ARKADELPHIA    FAIR      78  58  50 N5        30.05F
CAMDEN         MOSUNNY   82  57  42 E5        30.04F
TEXARKANA      MOSUNNY   79  61  53 NE6       30.04F
EL DORADO      MOSUNNY   77  60  55 NW6       30.04F
DE QUEEN       SUNNY     80  64  58 CALM      30.02F
$$

ARZ056-057-069-212100-
SOUTHEAST ARKANSAS

CITY           SKY/WX    TMP DP  RH WIND       PRES   REMARKS
PINE BLUFF     MOSUNNY   77  52  41 CALM      30.04F
STUTTGART      SUNNY     77  52  41 N8        30.06F
MONTICELLO     MOSUNNY   78  58  49 CALM      30.03F

$$





USA.gov is the U.S. government's official web portal to all federal, state and local government web resources and services.